Location: Daerah Kuala Lumpur
(3.1167°N, 101.6833°E)
Time: 06:36:31
(UTC+00:00)

ARGOS - Pass Details

Date: 05 August 2024
Orbit: 818 x 834 km, 98.4° (Epoch: 12 September)

Event Time Altitude Azimuth Distance (km) Brightness Sun altitude
Rises 22:11:12 0° 358° (N) 3,341 6.5 -15.3°
Reaches altitude 10° 22:13:40 10° 351° (N) 2,408 5.7 -14.7°
Maximum altitude 22:18:36 39° 283° (WNW) 1,202 3.6 -13.6°
Drops below altitude 10° 22:23:33 10° 215° (SW) 2,409 5.1 -12.4°
Enters shadow 22:23:52 - 213° (SSW) 2,525 5.2 -12.3°
